| time (UTC) | temp F | wind direction | speed MPH | gust MPH | rain 1hr in | rain 24hr in | rain mn in | humidity % | barometer mb |
| 20260502170516 | 60 | 315 | 3.0 | 8.0 | 0.00 | 0.01 | 0.01 | 52 | 1011.7 |
| 20260502164017 | 59 | 0 | 3.0 | 8.0 | 0.00 | 0.01 | 0.01 | 55 | 1012.1 |
| 20260502163517 | 59 | 293 | 3.0 | 6.0 | 0.00 | 0.01 | 0.01 | 58 | 1012.2 |
| 20260502163017 | 59 | 315 | 4.0 | 8.0 | 0.00 | 0.01 | 0.01 | 58 | 1012.3 |
| 20260502162517 | 59 | 248 | 5.0 | 11.0 | 0.00 | 0.01 | 0.01 | 60 | 1012.3 |
| 20260502162017 | 58 | 0 | 3.0 | 9.0 | 0.00 | 0.01 | 0.01 | 62 | 1012.3 |
| 20260502161518 | 58 | 0 | 3.0 | 9.0 | 0.00 | 0.01 | 0.01 | 62 | 1012.2 |
| 20260502161019 | 58 | 338 | 3.0 | 6.0 | 0.00 | 0.01 | 0.01 | 64 | 1012.1 |
| 20260502160517 | 58 | 315 | 2.0 | 7.0 | 0.00 | 0.01 | 0.01 | 65 | 1012.1 |
| 20260502152018 | 56 | 293 | 5.0 | 9.0 | 0.00 | 0.01 | 0.01 | 66 | 1012.4 |
| 20260502151517 | 57 | 315 | 4.0 | 8.0 | 0.00 | 0.01 | 0.01 | 66 | 1012.2 |
| 20260502151018 | 57 | 315 | 4.0 | 8.0 | 0.00 | 0.01 | 0.01 | 67 | 1012.2 |
| 20260502150519 | 57 | 315 | 5.0 | 10.0 | 0.00 | 0.01 | 0.01 | 67 | 1012.3 |
| 20260502130517 | 55 | 270 | 3.0 | 6.0 | 0.00 | 0.01 | 0.01 | 74 | 1012.6 |
| 20260502123517 | 54 | 270 | 3.0 | 5.0 | 0.00 | 0.01 | 0.01 | 79 | 1012.4 |
| 20260502123017 | 54 | 270 | 2.0 | 4.0 | 0.00 | 0.01 | 0.01 | 78 | 1012.5 |
| 20260502122517 | 54 | 270 | 3.0 | 6.0 | 0.00 | 0.01 | 0.01 | 79 | 1012.4 |
| 20260502122018 | 54 | 270 | 3.0 | 7.0 | 0.00 | 0.01 | 0.01 | 79 | 1012.2 |
| 20260502121517 | 54 | 225 | 1.0 | 3.0 | 0.00 | 0.01 | 0.01 | 80 | 1012.2 |
| 20260502121017 | 54 | 225 | 1.0 | 4.0 | 0.00 | 0.01 | 0.01 | 80 | 1012.2 |
| 20260502120517 | 54 | 225 | 1.0 | 3.0 | 0.00 | 0.01 | 0.01 | 80 | 1012.2 |
| 20260502115517 | 54 | 0.0 | 1.0 | 0.00 | 0.01 | 0.01 | 81 | 1012.2 | |
| 20260502115018 | 53 | 315 | 1.0 | 3.0 | 0.00 | 0.01 | 0.01 | 82 | 1012.2 |
| 20260502114517 | 53 | 0.0 | 2.0 | 0.00 | 0.01 | 0.01 | 82 | 1012.2 | |
| 20260502114038 | 53 | 0.0 | 2.0 | 0.00 | 0.01 | 0.01 | 82 | 1012.2 | |
| 20260502113517 | 53 | 0.0 | 3.0 | 0.00 | 0.01 | 0.01 | 83 | 1012.2 | |
| 20260502113017 | 53 | 0.0 | 1.0 | 0.00 | 0.01 | 0.01 | 84 | 1012.2 | |
| 20260502112539 | 53 | 0.0 | 1.0 | 0.00 | 0.01 | 0.01 | 84 | 1012.2 | |
| 20260502112018 | 53 | 0.0 | 2.0 | 0.00 | 0.01 | 0.01 | 85 | 1012.2 | |
| 20260502111522 | 53 | 315 | 1.0 | 4.0 | 0.00 | 0.01 | 0.01 | 85 | 1012.2 |
| 20260502111038 | 53 | 315 | 1.0 | 3.0 | 0.00 | 0.01 | 0.01 | 85 | 1012.1 |
| 20260502110517 | 52 | 0.0 | 2.0 | 0.00 | 0.01 | 0.01 | 85 | 1012.0 | |
| 20260502110017 | 52 | 0.0 | 2.0 | 0.00 | 0.01 | 0.01 | 86 | 1012.0 | |
| 20260502105517 | 52 | 0.0 | 2.0 | 0.00 | 0.01 | 0.01 | 86 | 1011.9 | |
| 20260502105037 | 52 | 0.0 | 1.0 | 0.00 | 0.01 | 0.01 | 86 | 1011.8 | |
| 20260502104518 | 52 | 248 | 1.0 | 2.0 | 0.00 | 0.01 | 0.01 | 86 | 1011.8 |
| 20260502104017 | 52 | 0.0 | 0.0 | 0.01 | 0.01 | 0.01 | 85 | 1011.7 | |
| 20260502103517 | 52 | 0.0 | 0.0 | 0.01 | 0.01 | 0.01 | 85 | 1011.6 | |
| 20260502103017 | 52 | 0.0 | 0.0 | 0.01 | 0.01 | 0.01 | 86 | 1011.5 | |
| 20260502102517 | 52 | 0.0 | 0.0 | 0.01 | 0.01 | 0.01 | 85 | 1011.5 | |
| 20260502102017 | 52 | 0.0 | 0.0 | 0.01 | 0.01 | 0.01 | 85 | 1011.5 | |
| 20260502101517 | 52 | 0.0 | 0.0 | 0.01 | 0.01 | 0.01 | 85 | 1011.4 | |
| 20260502101017 | 52 | 0.0 | 0.0 | 0.01 | 0.01 | 0.01 | 85 | 1011.5 | |
| 20260502100518 | 52 | 0.0 | 0.0 | 0.01 | 0.01 | 0.01 | 85 | 1011.5 | |
| 20260502091016 | 52 | 248 | 2.0 | 6.0 | 0.00 | 0.00 | 0.00 | 83 | 1011.8 |
| 20260502090518 | 52 | 225 | 4.0 | 9.0 | 0.00 | 0.00 | 0.00 | 83 | 1011.9 |
| 20260502071516 | 53 | 225 | 1.0 | 5.0 | 0.00 | 0.00 | 0.00 | 75 | 1011.9 |
| 20260502071017 | 53 | 225 | 2.0 | 5.0 | 0.00 | 0.00 | 0.00 | 75 | 1011.8 |
| 20260502070518 | 53 | 225 | 2.0 | 5.0 | 0.00 | 0.00 | 0.00 | 74 | 1011.9 |
| 20260502070017 | 53 | 203 | 1.0 | 3.0 | 0.00 | 0.00 | 0.00 | 74 | 1011.8 |
| 20260502065516 | 53 | 203 | 1.0 | 4.0 | 0.00 | 0.00 | 0.00 | 73 | 1011.7 |
| 20260502065036 | 53 | 203 | 1.0 | 2.0 | 0.00 | 0.00 | 0.00 | 73 | 1011.6 |
| 20260502064517 | 53 | 225 | 1.0 | 4.0 | 0.00 | 0.00 | 0.00 | 73 | 1011.9 |
| 20260502064016 | 53 | 225 | 2.0 | 7.0 | 0.00 | 0.00 | 0.00 | 72 | 1011.9 |
| 20260502063516 | 54 | 225 | 2.0 | 6.0 | 0.00 | 0.00 | 0.00 | 72 | 1011.9 |
| 20260502063017 | 54 | 203 | 4.0 | 7.0 | 0.00 | 0.00 | 0.00 | 72 | 1012.0 |
| 20260502062517 | 54 | 225 | 3.0 | 7.0 | 0.00 | 0.00 | 0.00 | 72 | 1012.1 |
| 20260502062017 | 54 | 225 | 2.0 | 5.0 | 0.00 | 0.00 | 0.00 | 71 | 1012.2 |
| 20260502061516 | 54 | 225 | 2.0 | 7.0 | 0.00 | 0.00 | 0.00 | 71 | 1012.2 |
| 20260502061016 | 54 | 225 | 4.0 | 9.0 | 0.00 | 0.00 | 0.00 | 70 | 1012.2 |
| 20260502060536 | 54 | 225 | 3.0 | 6.0 | 0.00 | 0.00 | 0.00 | 70 | 1012.3 |
| 20260502060017 | 54 | 203 | 3.0 | 6.0 | 0.00 | 0.00 | 0.00 | 69 | 1012.2 |
| 20260502055517 | 54 | 225 | 2.0 | 4.0 | 0.00 | 0.00 | 0.00 | 69 | 1012.2 |
| 20260502055016 | 54 | 225 | 2.0 | 6.0 | 0.00 | 0.00 | 0.00 | 68 | 1012.1 |
| 20260502054538 | 54 | 270 | 2.0 | 6.0 | 0.00 | 0.00 | 0.00 | 68 | 1012.0 |
| 20260502054016 | 54 | 225 | 2.0 | 4.0 | 0.00 | 0.00 | 0.00 | 69 | 1012.1 |
| 20260502053516 | 54 | 248 | 3.0 | 5.0 | 0.00 | 0.00 | 0.00 | 69 | 1012.0 |
| 20260502053038 | 54 | 270 | 2.0 | 6.0 | 0.00 | 0.00 | 0.00 | 69 | 1012.0 |
| 20260502052518 | 54 | 225 | 2.0 | 5.0 | 0.00 | 0.00 | 0.00 | 70 | 1012.1 |
| 20260502052016 | 54 | 248 | 2.0 | 5.0 | 0.00 | 0.00 | 0.00 | 70 | 1012.1 |
| 20260502051516 | 54 | 225 | 3.0 | 6.0 | 0.00 | 0.00 | 0.00 | 70 | 1012.1 |
| 20260502051016 | 54 | 203 | 2.0 | 6.0 | 0.00 | 0.00 | 0.00 | 69 | 1012.0 |
| 20260502050517 | 54 | 225 | 3.0 | 8.0 | 0.00 | 0.00 | 0.00 | 69 | 1012.1 |
| 20260502050016 | 54 | 225 | 3.0 | 9.0 | 0.00 | 0.00 | 0.00 | 69 | 1012.0 |
| 20260502045516 | 54 | 225 | 3.0 | 6.0 | 0.00 | 0.00 | 0.00 | 69 | 1012.0 |
| 20260502045016 | 54 | 203 | 3.0 | 7.0 | 0.00 | 0.00 | 0.00 | 69 | 1011.9 |
| 20260502044537 | 54 | 225 | 4.0 | 8.0 | 0.00 | 0.00 | 0.00 | 69 | 1011.8 |
| 20260502044017 | 54 | 225 | 3.0 | 6.0 | 0.00 | 0.00 | 0.00 | 69 | 1011.7 |
| 20260502043516 | 55 | 225 | 4.0 | 8.0 | 0.00 | 0.00 | 0.00 | 69 | 1011.8 |
| 20260502043016 | 54 | 225 | 3.0 | 7.0 | 0.00 | 0.00 | 0.00 | 69 | 1011.8 |
| 20260502042516 | 55 | 225 | 2.0 | 4.0 | 0.00 | 0.00 | 0.00 | 69 | 1011.9 |
| 20260502042016 | 54 | 225 | 4.0 | 9.0 | 0.00 | 0.00 | 0.00 | 69 | 1011.9 |
| 20260502041516 | 54 | 248 | 3.0 | 8.0 | 0.00 | 0.00 | 0.00 | 69 | 1012.1 |
| 20260502041016 | 54 | 225 | 4.0 | 9.0 | 0.00 | 0.00 | 0.00 | 70 | 1012.1 |
| 20260502040517 | 54 | 225 | 4.0 | 10.0 | 0.00 | 0.00 | 0.00 | 70 | 1012.1 |
| 20260502040017 | 54 | 225 | 2.0 | 6.0 | 0.00 | 0.00 | 0.00 | 71 | 1012.1 |
| 20260502035538 | 55 | 225 | 4.0 | 9.0 | 0.00 | 0.00 | 0.00 | 72 | 1012.1 |
| 20260502035017 | 55 | 203 | 3.0 | 10.0 | 0.00 | 0.00 | 0.00 | 73 | 1012.2 |
| 20260502034517 | 55 | 203 | 3.0 | 9.0 | 0.00 | 0.00 | 0.00 | 72 | 1012.2 |
| 20260502034017 | 55 | 225 | 4.0 | 8.0 | 0.00 | 0.00 | 0.00 | 72 | 1012.1 |
| 20260502033517 | 55 | 225 | 2.0 | 5.0 | 0.00 | 0.00 | 0.00 | 72 | 1011.9 |
| 20260502033037 | 55 | 225 | 2.0 | 7.0 | 0.00 | 0.00 | 0.00 | 72 | 1011.9 |
| 20260502032516 | 55 | 225 | 3.0 | 12.0 | 0.00 | 0.00 | 0.00 | 73 | 1012.0 |
| 20260502032017 | 55 | 225 | 4.0 | 11.0 | 0.00 | 0.00 | 0.00 | 74 | 1012.0 |
| 20260502031516 | 55 | 203 | 3.0 | 9.0 | 0.00 | 0.00 | 0.00 | 74 | 1011.9 |
| 20260502031016 | 55 | 225 | 4.0 | 9.0 | 0.00 | 0.00 | 0.00 | 75 | 1011.9 |
| 20260502030517 | 55 | 225 | 3.0 | 9.0 | 0.00 | 0.00 | 0.00 | 76 | 1012.0 |
| 20260502030018 | 55 | 225 | 3.0 | 8.0 | 0.00 | 0.00 | 0.00 | 77 | 1012.2 |
| 20260502025517 | 55 | 225 | 4.0 | 8.0 | 0.00 | 0.00 | 0.00 | 77 | 1012.3 |
| 20260502025018 | 54 | 225 | 4.0 | 10.0 | 0.00 | 0.00 | 0.00 | 78 | 1012.3 |
| 20260502024516 | 54 | 203 | 3.0 | 9.0 | 0.00 | 0.00 | 0.00 | 78 | 1012.3 |
| 20260502024016 | 54 | 225 | 4.0 | 9.0 | 0.00 | 0.00 | 0.00 | 79 | 1012.3 |
| 20260502023517 | 54 | 225 | 3.0 | 9.0 | 0.00 | 0.00 | 0.00 | 80 | 1012.3 |
| 20260502023017 | 54 | 225 | 3.0 | 7.0 | 0.00 | 0.00 | 0.00 | 80 | 1012.2 |
| 20260502022516 | 54 | 225 | 2.0 | 8.0 | 0.00 | 0.00 | 0.00 | 80 | 1012.3 |
| 20260502022058 | 54 | 225 | 1.0 | 5.0 | 0.00 | 0.00 | 0.00 | 80 | 1012.3 |
| 20260502021517 | 54 | 203 | 1.0 | 5.0 | 0.00 | 0.00 | 0.00 | 80 | 1012.3 |
| 20260502021057 | 54 | 225 | 2.0 | 6.0 | 0.00 | 0.00 | 0.00 | 79 | 1012.1 |
| 20260502020517 | 54 | 225 | 1.0 | 4.0 | 0.00 | 0.00 | 0.00 | 79 | 1012.1 |
| 20260502020036 | 54 | 0.0 | 2.0 | 0.00 | 0.00 | 0.00 | 79 | 1012.1 | |
| 20260502015517 | 54 | 225 | 2.0 | 8.0 | 0.00 | 0.00 | 0.00 | 79 | 1012.1 |
| 20260502015018 | 54 | 225 | 1.0 | 5.0 | 0.00 | 0.00 | 0.00 | 78 | 1012.1 |
| 20260502014516 | 54 | 203 | 1.0 | 5.0 | 0.00 | 0.00 | 0.00 | 78 | 1012.0 |
| 20260502014036 | 54 | 225 | 2.0 | 7.0 | 0.00 | 0.00 | 0.00 | 78 | 1011.9 |
| 20260502013516 | 54 | 225 | 2.0 | 5.0 | 0.00 | 0.00 | 0.00 | 78 | 1012.0 |
| 20260502013016 | 54 | 225 | 2.0 | 6.0 | 0.00 | 0.00 | 0.00 | 77 | 1011.9 |
| 20260502012516 | 54 | 225 | 2.0 | 5.0 | 0.00 | 0.00 | 0.00 | 77 | 1012.0 |
| 20260502012016 | 54 | 225 | 1.0 | 5.0 | 0.00 | 0.00 | 0.00 | 77 | 1011.9 |
| 20260502011558 | 54 | 180 | 1.0 | 5.0 | 0.00 | 0.00 | 0.00 | 76 | 1011.7 |
| 20260502011016 | 54 | 158 | 1.0 | 4.0 | 0.00 | 0.00 | 0.00 | 76 | 1011.8 |
| 20260502010516 | 55 | 203 | 1.0 | 3.0 | 0.00 | 0.00 | 0.00 | 75 | 1011.7 |
| 20260502010018 | 55 | 0.0 | 2.0 | 0.00 | 0.00 | 0.00 | 75 | 1011.7 | |
| 20260502005536 | 55 | 158 | 1.0 | 5.0 | 0.00 | 0.00 | 0.00 | 75 | 1011.6 |
| 20260502005016 | 55 | 0.0 | 2.0 | 0.00 | 0.00 | 0.00 | 75 | 1011.6 | |
| 20260502004516 | 55 | 158 | 1.0 | 2.0 | 0.00 | 0.00 | 0.00 | 75 | 1011.6 |
| 20260502004016 | 55 | 203 | 1.0 | 4.0 | 0.00 | 0.00 | 0.00 | 75 | 1011.5 |
| 20260502003518 | 55 | 180 | 1.0 | 2.0 | 0.00 | 0.00 | 0.00 | 75 | 1011.6 |
| 20260502003016 | 55 | 203 | 1.0 | 6.0 | 0.00 | 0.00 | 0.00 | 74 | 1011.6 |
| 20260502002518 | 55 | 180 | 1.0 | 4.0 | 0.00 | 0.00 | 0.00 | 74 | 1011.5 |
| 20260502002016 | 55 | 158 | 1.0 | 3.0 | 0.00 | 0.00 | 0.00 | 74 | 1011.5 |
| 20260502001516 | 55 | 158 | 1.0 | 3.0 | 0.00 | 0.00 | 0.00 | 74 | 1011.4 |
| 20260502001016 | 55 | 158 | 2.0 | 8.0 | 0.00 | 0.00 | 0.00 | 73 | 1011.3 |
| 20260502000517 | 55 | 135 | 1.0 | 7.0 | 0.00 | 0.00 | 0.00 | 73 | 1011.4 |
| 20260502000016 | 55 | 135 | 2.0 | 7.0 | 0.00 | 0.00 | 0.00 | 73 | 1011.4 |
| 20260501235516 | 55 | 158 | 2.0 | 9.0 | 0.00 | 0.00 | 0.00 | 72 | 1011.4 |
| 20260501235016 | 56 | 158 | 3.0 | 9.0 | 0.00 | 0.00 | 0.00 | 72 | 1011.3 |
| 20260501234518 | 56 | 158 | 2.0 | 7.0 | 0.00 | 0.00 | 0.00 | 72 | 1011.1 |
| 20260501234016 | 56 | 135 | 1.0 | 4.0 | 0.00 | 0.00 | 0.00 | 72 | 1011.1 |
| 20260501233516 | 56 | 135 | 2.0 | 6.0 | 0.00 | 0.00 | 0.00 | 71 | 1011.1 |
| 20260501233016 | 56 | 158 | 1.0 | 4.0 | 0.00 | 0.00 | 0.00 | 71 | 1011.0 |
| 20260501232618 | 56 | 135 | 2.0 | 5.0 | 0.00 | 0.00 | 0.00 | 70 | 1011.0 |
| 20260501232057 | 56 | 180 | 1.0 | 3.0 | 0.00 | 0.00 | 0.00 | 70 | 1011.1 |
| 20260501231557 | 57 | 135 | 2.0 | 6.0 | 0.00 | 0.00 | 0.00 | 69 | 1011.0 |
| 20260501231016 | 57 | 158 | 2.0 | 7.0 | 0.00 | 0.00 | 0.00 | 69 | 1011.0 |
| 20260501230516 | 57 | 135 | 3.0 | 10.0 | 0.00 | 0.00 | 0.00 | 68 | 1010.9 |
| 20260501230017 | 58 | 135 | 1.0 | 6.0 | 0.00 | 0.00 | 0.00 | 68 | 1010.9 |
| 20260501225517 | 58 | 135 | 1.0 | 4.0 | 0.00 | 0.00 | 0.00 | 68 | 1010.8 |
| 20260501225016 | 58 | 135 | 3.0 | 8.0 | 0.00 | 0.00 | 0.00 | 67 | 1010.7 |
| 20260501224516 | 58 | 113 | 3.0 | 9.0 | 0.00 | 0.00 | 0.00 | 65 | 1010.7 |
| 20260501224017 | 59 | 158 | 2.0 | 8.0 | 0.00 | 0.00 | 0.00 | 65 | 1010.7 |
| 20260501223539 | 59 | 135 | 3.0 | 8.0 | 0.00 | 0.00 | 0.00 | 64 | 1010.9 |
| 20260501223016 | 59 | 225 | 2.0 | 9.0 | 0.00 | 0.00 | 0.00 | 64 | 1010.9 |
| 20260501222517 | 59 | 135 | 2.0 | 7.0 | 0.00 | 0.00 | 0.00 | 63 | 1010.9 |
| 20260501222016 | 59 | 158 | 4.0 | 10.0 | 0.00 | 0.00 | 0.00 | 62 | 1010.8 |
| 20260501221516 | 59 | 135 | 3.0 | 10.0 | 0.00 | 0.00 | 0.00 | 62 | 1010.9 |
| 20260501221016 | 60 | 135 | 2.0 | 7.0 | 0.00 | 0.00 | 0.00 | 62 | 1010.9 |
| 20260501220516 | 59 | 135 | 2.0 | 9.0 | 0.00 | 0.00 | 0.00 | 62 | 1010.9 |
| 20260501220058 | 59 | 180 | 3.0 | 9.0 | 0.00 | 0.00 | 0.00 | 61 | 1011.1 |
| 20260501215516 | 60 | 158 | 2.0 | 10.0 | 0.00 | 0.00 | 0.00 | 60 | 1011.1 |
| 20260501215016 | 59 | 180 | 3.0 | 8.0 | 0.00 | 0.00 | 0.00 | 60 | 1011.1 |
| 20260501214516 | 59 | 135 | 3.0 | 9.0 | 0.00 | 0.00 | 0.00 | 61 | 1011.1 |
| 20260501214016 | 59 | 135 | 4.0 | 12.0 | 0.00 | 0.00 | 0.00 | 60 | 1011.0 |
| 20260501213517 | 59 | 135 | 4.0 | 12.0 | 0.00 | 0.00 | 0.00 | 60 | 1011.0 |
| 20260501213016 | 59 | 135 | 4.0 | 12.0 | 0.00 | 0.00 | 0.00 | 59 | 1011.1 |
| 20260501212516 | 59 | 135 | 4.0 | 15.0 | 0.00 | 0.00 | 0.00 | 59 | 1011.0 |
| 20260501212036 | 59 | 158 | 4.0 | 15.0 | 0.00 | 0.00 | 0.00 | 59 | 1011.1 |
| 20260501211516 | 60 | 135 | 4.0 | 11.0 | 0.00 | 0.01 | 0.00 | 59 | 1010.9 |
| 20260501211016 | 60 | 158 | 4.0 | 12.0 | 0.00 | 0.02 | 0.00 | 59 | 1011.0 |
| 20260501210517 | 60 | 158 | 4.0 | 10.0 | 0.00 | 0.02 | 0.00 | 58 | 1011.0 |
| 20260501210016 | 60 | 158 | 3.0 | 11.0 | 0.00 | 0.02 | 0.00 | 58 | 1011.0 |
| 20260501205516 | 60 | 135 | 3.0 | 9.0 | 0.00 | 0.02 | 0.00 | 58 | 1011.0 |
| 20260501205016 | 60 | 158 | 3.0 | 8.0 | 0.00 | 0.02 | 0.00 | 57 | 1011.0 |
| 20260501204516 | 60 | 203 | 3.0 | 10.0 | 0.00 | 0.02 | 0.00 | 57 | 1011.1 |
| 20260501204016 | 60 | 158 | 4.0 | 10.0 | 0.00 | 0.02 | 0.00 | 57 | 1011.1 |
| 20260501203516 | 60 | 135 | 4.0 | 13.0 | 0.00 | 0.02 | 0.00 | 56 | 1011.1 |
| 20260501203016 | 61 | 135 | 5.0 | 11.0 | 0.00 | 0.02 | 0.00 | 54 | 1011.1 |
| 20260501202516 | 62 | 135 | 3.0 | 10.0 | 0.00 | 0.02 | 0.00 | 54 | 1011.1 |
| 20260501202017 | 61 | 135 | 3.0 | 11.0 | 0.00 | 0.02 | 0.00 | 54 | 1011.1 |
| 20260501201517 | 61 | 135 | 4.0 | 10.0 | 0.00 | 0.02 | 0.00 | 51 | 1011.1 |
| 20260501201016 | 62 | 135 | 4.0 | 12.0 | 0.00 | 0.02 | 0.00 | 50 | 1011.1 |
| 20260501200559 | 62 | 158 | 5.0 | 13.0 | 0.00 | 0.02 | 0.00 | 48 | 1011.1 |
| 20260501200016 | 63 | 135 | 4.0 | 11.0 | 0.00 | 0.02 | 0.00 | 46 | 1011.1 |
| 20260501195536 | 63 | 135 | 3.0 | 9.0 | 0.00 | 0.02 | 0.00 | 46 | 1011.2 |
| 20260501195016 | 63 | 158 | 3.0 | 10.0 | 0.00 | 0.02 | 0.00 | 46 | 1011.1 |
| 20260501194516 | 63 | 135 | 3.0 | 10.0 | 0.00 | 0.02 | 0.00 | 46 | 1011.1 |
| 20260501194016 | 63 | 135 | 3.0 | 9.0 | 0.00 | 0.02 | 0.00 | 45 | 1011.2 |
| 20260501193516 | 64 | 135 | 4.0 | 11.0 | 0.00 | 0.02 | 0.00 | 43 | 1011.2 |
| 20260501193036 | 65 | 158 | 3.0 | 7.0 | 0.00 | 0.02 | 0.00 | 44 | 1011.2 |
| 20260501192517 | 65 | 135 | 4.0 | 11.0 | 0.00 | 0.02 | 0.00 | 43 | 1011.2 |
| 20260501192016 | 66 | 135 | 3.0 | 8.0 | 0.00 | 0.02 | 0.00 | 43 | 1011.3 |
| 20260501191516 | 66 | 158 | 3.0 | 8.0 | 0.00 | 0.02 | 0.00 | 44 | 1011.3 |
| 20260501191016 | 66 | 225 | 4.0 | 11.0 | 0.00 | 0.02 | 0.00 | 43 | 1011.3 |
| 20260501190518 | 66 | 203 | 4.0 | 8.0 | 0.00 | 0.02 | 0.00 | 38 | 1011.3 |
| 20260501190016 | 66 | 225 | 5.0 | 11.0 | 0.00 | 0.02 | 0.00 | 38 | 1011.4 |
| 20260501185516 | 66 | 270 | 3.0 | 7.0 | 0.00 | 0.02 | 0.00 | 38 | 1011.4 |
| 20260501185016 | 67 | 270 | 3.0 | 8.0 | 0.00 | 0.02 | 0.00 | 37 | 1011.5 |
| 20260501184516 | 66 | 225 | 3.0 | 7.0 | 0.00 | 0.02 | 0.00 | 40 | 1011.5 |
| 20260501184016 | 66 | 225 | 5.0 | 10.0 | 0.00 | 0.02 | 0.00 | 39 | 1011.7 |
| 20260501183516 | 66 | 135 | 2.0 | 10.0 | 0.00 | 0.02 | 0.00 | 40 | 1011.7 |
| 20260501183036 | 66 | 180 | 3.0 | 9.0 | 0.00 | 0.02 | 0.00 | 40 | 1011.9 |
| 20260501182515 | 66 | 225 | 4.0 | 10.0 | 0.00 | 0.02 | 0.00 | 39 | 1012.0 |
| 20260501182016 | 66 | 225 | 3.0 | 12.0 | 0.00 | 0.02 | 0.00 | 41 | 1012.0 |
| 20260501181517 | 66 | 203 | 2.0 | 7.0 | 0.00 | 0.02 | 0.00 | 42 | 1012.0 |
| 20260501181016 | 65 | 180 | 2.0 | 6.0 | 0.00 | 0.02 | 0.00 | 42 | 1012.1 |
| 20260501180517 | 65 | 158 | 3.0 | 8.0 | 0.00 | 0.02 | 0.00 | 42 | 1012.0 |
| 20260501180016 | 65 | 225 | 5.0 | 11.0 | 0.00 | 0.02 | 0.00 | 41 | 1012.0 |
| 20260501175516 | 65 | 158 | 3.0 | 9.0 | 0.00 | 0.02 | 0.00 | 42 | 1012.0 |
| 20260501175016 | 65 | 135 | 3.0 | 9.0 | 0.00 | 0.02 | 0.00 | 41 | 1012.1 |
| 20260501174516 | 65 | 225 | 3.0 | 7.0 | 0.00 | 0.02 | 0.00 | 41 | 1012.0 |
| 20260501174017 | 65 | 225 | 2.0 | 8.0 | 0.00 | 0.02 | 0.00 | 41 | 1012.1 |
| 20260501173516 | 64 | 180 | 3.0 | 9.0 | 0.00 | 0.02 | 0.00 | 43 | 1012.1 |
| 20260501173016 | 65 | 225 | 6.0 | 11.0 | 0.00 | 0.02 | 0.00 | 41 | 1012.2 |
| 20260501172017 | 65 | 225 | 2.0 | 7.0 | 0.00 | 0.02 | 0.00 | 42 | 1012.3 |
| 20260501171516 | 64 | 225 | 2.0 | 5.0 | 0.00 | 0.02 | 0.00 | 43 | 1012.4 |